Regional Weather Roundup
Issued by NWS

Home | Current Version | Previous Version | Text Only | Print | Product List | Glossary Off
Versions: 1 2 3 4 5 6 7 8 9 10 11 12 13 14 15 16 17 18 19 20 21 22 23 24 25 26 27 28 29 30 31 32 33 34 35 36 37 38 39 40 41 42 43 44 45 46 47 48 49 50

000
ASUS43 KMPX 311901
RWRMN
WEATHER ROUNDUP FOR MINNESOTA
NATIONAL WEATHER SERVICE TWIN CITIES/CHANHASSEN MN
200 PM CDT MON AUG 31 2015


NOTE: "FAIR" INDICATES FEW OR NO CLOUDS BELOW 12,000 FEET WITH NO
SIGNIFICANT WEATHER AND/OR OBSTRUCTIONS TO VISIBILITY. N/A MEANS
CURRENT SKY AND/OR WEATHER CONDITIONS ARE NOT AVAILABLE.

MNZ060>063-068>070-312000-
   Twin Cities Metro

CITY           SKY/WX    TMP DP  RH WIND       PRES   REMARKS
TWIN CITIES    MOSUNNY   83  69  62 S15G21    29.91F
ST PAUL        PTSUNNY   82  71  69 S14       29.92S
CRYSTAL        MOSUNNY   84  68  58 S14G26    29.89F
BLAINE         MOSUNNY   84  70  61 SW16G26   29.90F
LAKEVILLE      MOSUNNY   81  72  74 S10       29.93S
EDEN PRAIRIE   PTSUNNY   82  70  66 S18G25    29.90F
SOUTH ST PAUL  MOSUNNY   83  69  63 S13G18    29.92F
LAKE ELMO      CLOUDY    81  72  74 S14G21    29.94S
$$
MNZ001>005-007-008-013>017-022>024-027-028-312000-
   Northwest Minnesota

CITY           SKY/WX    TMP DP  RH WIND       PRES   REMARKS
BEMIDJI        MOSUNNY   80  61  53 SW12G20   29.78R
HALLOCK        PTSUNNY   77  63  61 CALM      29.72F
ROSEAU         PTSUNNY   77  68  73 W8        29.73S
WARROAD        PTSUNNY   72  66  83 SW7       29.73S
THIEF RVR FALL CLOUDY   N/A N/A N/A SW3       29.77R
CROOKSTON      PTSUNNY   79  64  61 N7        29.77R
FOSSTON        CLOUDY    75  63  64 SW15      29.79R
DETROIT LAKES  PTSUNNY   79  63  57 SW10      29.81R
MOORHEAD       CLOUDY    81  64  57 W8        29.77F
PARK RAPIDS    SUNNY     86  59  39 SW21      29.79S
MAHNOMEN       MOCLDY    76  64  65 W13       29.79R
$$
MNZ006-009>011-018-025>026-312000-
   North Central Minnesota

CITY           SKY/WX    TMP DP  RH WIND       PRES   REMARKS
BAUDETTE       MOSUNNY   78  64  61 SW14G24   29.72R
FLAG ISLAND    CLOUDY    68  64  88 SW8       29.70S
INTL FALLS     SUNNY     81  61  50 SW15G28   29.72S
WASKISH        MOSUNNY   75  64  69 SW12      29.75R
BIG FORK       SUNNY     84  63  48 S14       29.78R
LONGVILLE      SUNNY     81  64  57 S12G18    29.80S
GRAND RAPIDS     N/A     81  63  54 S17G24    29.81S
ORR            SUNNY     82  57  42 S13G20    29.75F
COOK           SUNNY     82  61  47 S13G18    29.79F
WALKER         FAIR      80  61  51 S15G22    29.77F
$$
MNZ012-019>021-037-312000-
   Northeast Minnesota

CITY           SKY/WX    TMP DP  RH WIND       PRES   REMARKS
DULUTH         SUNNY     79  65  62 S18       29.86F
ELY            MOSUNNY   81  57  44 SW17      29.82S
HIBBING        SUNNY     82  61  48 VRB7G18   29.81F
EVELETH        SUNNY     81  63  54 S14G21    29.83F
DULUTH HARBOR  SUNNY     81  70  69 S14       29.84F
TWO HARBORS    SUNNY     81  70  69 SW14      29.85S
SILVER BAY     SUNNY     79  66  65 S13G21    29.85S
GRAND MARAIS     N/A     61  58  90 SW6       29.86F
G MARAIS ARPRT MOSUNNY   72  61  68 S14G24    29.90S
$$
MNZ029>031-032-039>041-046>048-054>057-064-312000-
   West Central Minnesota

CITY           SKY/WX    TMP DP  RH WIND       PRES   REMARKS
FERGUS FALLS   PTSUNNY   82  63  51 SW13      29.77S
WHEATON        MOSUNNY   82  63  51 SW13      29.81R
MORRIS         SUNNY     84  66  54 S18       29.80F
ALEXANDRIA     SUNNY     81  68  64 S15       29.84F
ELBOW LAKE     FAIR      81  67  63 S14       29.80S
WADENA         SUNNY     82  64  54 S15       29.81R
GLENWOOD       SUNNY     82  68  61 S20       29.86S
APPLETON       SUNNY     86  64  48 S18       29.81S
BENSON         SUNNY     82  66  57 SW12G18   29.83S
ORTONVILLE     SUNNY     84  63  48 SW12G21   29.81S
MADISON        SUNNY     84  64  51 S14       29.82S
WILLMAR        FAIR      82  70  65 S10G18    29.87R
$$
MNZ033>034-036-042>043-049>051-058-059-312000-
   Central Minnesota

CITY           SKY/WX    TMP DP  RH WIND       PRES   REMARKS
ST CLOUD       SUNNY     81  69  67 S17G26    29.87S
SAUK CENTRE    FAIR      81  68  65 S17       29.85S
PAYNESVILLE    SUNNY     81  66  61 SE15G24   29.87S
AITKIN         SUNNY     81  68  65 S14G24    29.82F
PINE RIVER     SUNNY     81  66  61 S14       29.84F
BRAINERD       SUNNY     82  65  56 S16G25    29.83F
STAPLES        SUNNY     82  63  51 S16       29.82S
LONG PRAIRIE   FAIR      81  68  65 S17       29.85S
LITTLE FALLS   SUNNY     81  63  54 S12G24    29.85F
LITCHFIELD     SUNNY     82  73  74 S8G18     29.89R
BUFFALO        MOSUNNY   81  67  63 S15G21    29.90F
MAPLE LAKE     SUNNY     81  71  73 S10G17    29.90S
$$
MNZ037-044-045-052-053-312000-
   East Central Minnesota

CITY           SKY/WX    TMP DP  RH WIND       PRES   REMARKS
PRINCETON      SUNNY     82  70  65 S13G20    29.88F
MORA           SUNNY     79  64  61 S15G21    29.90S
CAMBRIDGE      SUNNY     84  68  58 S9G18     29.88F
RUSH CITY      MOSUNNY   80  70  70 S10G16    29.90S
MOOSE LAKE     SUNNY     79  68  69 S15G23    29.84F
HINCKLEY       FAIR      81  68  65 S16G23    29.89F
CLOQUET        SUNNY     79  64  61 S14G20    29.86F
MCGREGOR       SUNNY     81  64  57 S15G21    29.85F
$$
MNZ071>073-080-081-089-090-097-098-312000-
   Southwest Minnesota

CITY           SKY/WX    TMP DP  RH WIND       PRES   REMARKS
MONTEVIDEO     SUNNY     84  70  61 SW15G21   29.85F
GRANITE FALLS  SUNNY     83  71  66 S10       29.87R
CANBY          SUNNY     84  65  54 S10G18    29.85R
MARSHALL       SUNNY     82  66  57 SW23      29.87S
REDWOOD FALLS  SUNNY     82  67  60 S20G31    29.86F
OLIVIA         SUNNY     79  63  57 S16G26    29.86S
PIPESTONE      SUNNY     81  68  65 S16       29.89S
WINDOM         SUNNY     81  66  61 S15G23    29.91F
WORTHINGTON    MOSUNNY   79  66  65 S17G24    29.92S
JACKSON        MOSUNNY   79  68  69 S15G26    29.95S
TRACY          SUNNY     82  69  65 SW15G29   29.88R
SLAYTON        MOSUNNY   80  68  67 S16G25    29.91S
$$
MNZ065>067-074>077-082>085-091>093-312000-
   South Central Minnesota

CITY           SKY/WX    TMP DP  RH WIND       PRES   REMARKS
MANKATO        SUNNY     81  68  65 S17G24    29.92F
NEW ULM        MOSUNNY   81  70  69 SW14      29.90S
ST JAMES       SUNNY     82  70  65 S13G21    29.93S
FAIRMONT       PTSUNNY   81  66  61 S10G18    29.93S
GLENCOE        MOSUNNY   81  71  71 S12G20    29.90S
FARIBAULT      PTSUNNY   81  72  74 S12G17    29.94F
OWATONNA       SUNNY     81  70  69 S10       29.95F
WASECA         MOSUNNY   79  68  69 SW14G21   29.96S
ALBERT LEA     MOSUNNY   82  72  69 S9G16     29.96S
$$
MNZ078>079-086>088-094>096-312000-
   Southeast Minnesota

CITY           SKY/WX    TMP DP  RH WIND       PRES   REMARKS
ROCHESTER      MOSUNNY   81  71  71 S16       29.98F
RED WING       MOSUNNY   84  70  61 S10G17    29.93F
STANTON        PTSUNNY   83  70  64 S9G18     29.93S
DODGE CENTER   PTSUNNY   81  70  69 S15       29.97F
WINONA         MOSUNNY   82  70  65 S3        29.97F
AUSTIN         MOSUNNY   82  72  69 S10       29.97F
PRESTON        MOSUNNY   80  69  68 S13G21    30.00F
$$
ABBREVIATIONS USED IN REMARKS
   TC - TEMPERATURES IN CELSIUS
  WCI - WIND CHILL INDEX
   HX - HEAT INDEX
  VSB - VISIBILITY
$$



USA.gov is the U.S. government's official web portal to all federal, state and local government web resources and services.